This is the latest recevied weather packets stored in our database for station/object K5OBH. If no packets are shown the sender has not sent any weather packets the latest 10 day(s).
| Time | Temp. | Humidity | Pressure | Rain* | Wind** | Luminosity | Snow |
|---|---|---|---|---|---|---|---|
| 1777776620 | 17.78° C | 55% | 1019 hPa | 0 mm | - | 0 W/m² | - |
| 1777776315 | 17.78° C | 56% | 1018.6 hPa | 0 mm | - | 0 W/m² | - |
| 1777776013 | 17.78° C | 56% | 1018.5 hPa | 0 mm | - | 0 W/m² | - |
| 1777775709 | 17.78° C | 55% | 1018.5 hPa | 0 mm | - | 0 W/m² | - |
| 1777775407 | 18.33° C | 54% | 1018.7 hPa | 0 mm | - | 0 W/m² | - |
| 1777775102 | 17.78° C | 54% | 1018.6 hPa | 0 mm | - | 0 W/m² | - |
| 1777774797 | 18.33° C | 54% | 1018.5 hPa | 0 mm | - | 0 W/m² | - |
| 1777774494 | 18.33° C | 54% | 1018.5 hPa | 0 mm | - | 0 W/m² | - |
| 1777774191 | 18.89° C | 53% | 1018.4 hPa | 0 mm | - | 0 W/m² | - |
| 1777773889 | 18.89° C | 52% | 1018.4 hPa | 0 mm | - | 0 W/m² | - |
| 1777773585 | 18.89° C | 52% | 1018.5 hPa | 0 mm | - | 0 W/m² | - |
| 1777773282 | 18.33° C | 54% | 1018.4 hPa | 0 mm | - | 0 W/m² | - |
| 1777772978 | 18.89° C | 53% | 1018.2 hPa | 0 mm | - | 0 W/m² | - |
| 1777772675 | 18.89° C | 53% | 1018.2 hPa | 0 mm | - | 0 W/m² | - |
| 1777772373 | 18.89° C | 52% | 1018.2 hPa | 0 mm | - | 0 W/m² | - |
| 1777772070 | 19.44° C | 50% | 1017.9 hPa | 0 mm | - | 0 W/m² | - |
| 1777771767 | 19.44° C | 50% | 1018.1 hPa | 0 mm | - | 1 W/m² | - |
| 1777771465 | 20° C | 49% | 1018 hPa | 0 mm | - | 1 W/m² | - |
| 1777771161 | 20° C | 48% | 1018 hPa | 0 mm | - | 3 W/m² | - |
| 1777770858 | 20° C | 47% | 1018.1 hPa | 0 mm | - | 5 W/m² | - |
| 1777770555 | 20.56° C | 46% | 1018 hPa | 0 mm | - | 7 W/m² | - |
| 1777770252 | 20.56° C | 47% | 1018 hPa | 0 mm | - | 10 W/m² | - |
| 1777769949 | 20.56° C | 46% | 1017.9 hPa | 0 mm | - | 13 W/m² | - |
| 1777769646 | 21.11° C | 46% | 1018 hPa | 0 mm | - | 16 W/m² | - |
| 1777769342 | 21.11° C | 45% | 1017.9 hPa | 0 mm | - | 19 W/m² | - |
* Rain latest hour (hover to see other rain measurements)
** Current wind speed in m/s (hover to see current wind gust speed)